Weather History for New Bedford, MA

Change the Weather History Date:

Tuesday, July 23, 2013

  Actual Average Record
Temperature  
Mean Temperature 76 °F -  
Max Temperature 82 °F 82 °F 94 °F (1952)
Min Temperature 71 °F 65 °F 53 °F (2000)
Cooling Degree Days 12    
Growing Degree Days 26 (Base 50)    
Moisture  
Dew Point 73 °F    
Average Humidity 90    
Maximum Humidity 100    
Minimum Humidity 74    
Precipitation  
Precipitation 0.22 in - - ()
Sea Level Pressure  
Sea Level Pressure 29.67 in    
Wind  
Wind Speed 9 mph (South)    
Max Wind Speed 20 mph    
Max Gust Speed 28 mph    
Visibility 7 miles    
Events Fog , Rain    
Averages and records for this station are not official NWS values.
T = Trace of Precipitation, MM = Missing Value Source: NWS Daily Summary

Daily Weather History Graph

Daily Weather History Graph

Search for Another Location

Airport:

Trip Planner

Search our weather history database for the weather conditions in past years. The results will help you decide how hot, cold, wet, or windy it might be!

Date:

Astronomy

Jul. 23, 2013 Rise Set
Actual Time 5:29 AM EDT 8:10 PM EDT
Civil Twilight 4:57 AM EDT 8:42 PM EDT
Nautical Twilight 4:16 AM EDT 9:22 PM EDT
Astronomical Twilight 3:30 AM EDT 10:08 PM EDT
Moon 8:34 PM EDT (7/23) 6:36 AM EDT (7/23)
Length of Visible Light 15h 45m
Length of Day
14h 40m
Full, 99% of the Moon is Illuminated
Jul 23
Full
Jul 29
Last Quarter
Aug 6
New
Aug 14
First Quarter
Aug 20
Full

Hourly Weather History & Observations

Time (EDT) Temp. Heat Index Dew Point Humidity Pressure Visibility Wind Dir Wind Speed Gust Speed Precip Events Conditions
12:13 AM 71.6 °F - 71.6 °F 100% 29.86 in 8.0 mi East 6.9 mph - N/A   Overcast
12:53 AM 73.0 °F - 71.1 °F 93% 29.85 in 8.0 mi ESE 6.9 mph - N/A   Overcast
1:53 AM 73.0 °F - 71.1 °F 93% 29.81 in 10.0 mi ESE 6.9 mph - N/A   Overcast
2:53 AM 73.0 °F - 72.0 °F 96% 29.79 in 10.0 mi ESE 4.6 mph - 0.00 in Rain Light Rain
3:53 AM 73.0 °F - 72.0 °F 96% 29.76 in 10.0 mi ESE 4.6 mph - 0.00 in   Overcast
4:51 AM 73.4 °F - 71.6 °F 94% 29.74 in 10.0 mi SE 5.8 mph - N/A   Overcast
4:53 AM 73.9 °F - 72.0 °F 93% 29.75 in 10.0 mi SE 5.8 mph - N/A   Overcast
5:39 AM 73.4 °F - 73.4 °F 100% 29.73 in 10.0 mi SSE 6.9 mph - N/A   Overcast
5:53 AM 73.9 °F - 73.0 °F 97% 29.73 in 7.0 mi SSE 6.9 mph - N/A   Overcast
6:06 AM 73.4 °F - 73.4 °F 100% 29.73 in 1.5 mi SSE 8.1 mph - 0.00 in Rain Light Rain
6:14 AM 73.4 °F - 73.4 °F 100% 29.73 in 0.2 mi SSE 9.2 mph - 0.00 in Fog , Rain Light Rain
6:29 AM 73.4 °F - 73.4 °F 100% 29.73 in 0.5 mi SSE 6.9 mph - 0.00 in Fog Fog
6:41 AM 73.4 °F - 73.4 °F 100% 29.72 in 1.8 mi SSE 6.9 mph - 0.00 in   Overcast
6:53 AM 73.9 °F - 73.0 °F 97% 29.72 in 2.0 mi SSE 6.9 mph - 0.00 in   Overcast
7:00 AM 73.4 °F - 73.4 °F 100% 29.72 in 1.0 mi SSE 6.9 mph - N/A   Overcast
7:53 AM 73.9 °F - 73.0 °F 97% 29.70 in 1.0 mi South 4.6 mph - 0.12 in Rain Heavy Rain
8:35 AM 75.2 °F - 73.4 °F 94% 29.68 in 3.0 mi South 9.2 mph - 0.08 in Rain Light Rain
8:53 AM 75.0 °F - 73.9 °F 96% 29.67 in 3.0 mi South 9.2 mph - 0.08 in Rain Light Rain
9:09 AM 75.2 °F - 73.4 °F 94% 29.67 in 3.0 mi SSW 9.2 mph - 0.00 in   Overcast
9:53 AM 77.0 °F - 75.0 °F 94% 29.66 in 4.0 mi South 13.8 mph - 0.00 in   Overcast
10:53 AM 79.0 °F - 75.9 °F 90% 29.65 in 10.0 mi South 11.5 mph - 0.00 in   Overcast
11:49 AM 82.4 °F 88.2 °F 73.4 °F 74% 29.64 in 10.0 mi SSW 15.0 mph 24.2 mph N/A   Mostly Cloudy
11:53 AM 82.9 °F 90.2 °F 75.0 °F 77% 29.63 in 10.0 mi SSW 13.8 mph - N/A   Mostly Cloudy
12:13 PM 82.4 °F 88.2 °F 73.4 °F 74% 29.62 in 10.0 mi SSW 18.4 mph 24.2 mph N/A   Mostly Cloudy
12:35 PM 80.6 °F 85.4 °F 73.4 °F 79% 29.62 in 10.0 mi SSW 17.3 mph 25.3 mph N/A   Mostly Cloudy
12:53 PM 79.0 °F - 75.9 °F 90% 29.62 in 8.0 mi SSW 16.1 mph 21.9 mph 0.02 in Rain Light Rain
1:11 PM 80.6 °F 86.2 °F 75.2 °F 84% 29.60 in 10.0 mi SSW 17.3 mph - 0.00 in   Overcast
1:53 PM 80.1 °F 85.1 °F 75.0 °F 85% 29.59 in 10.0 mi SSW 18.4 mph 27.6 mph 0.00 in   Overcast
2:53 PM 81.0 °F 86.7 °F 75.0 °F 82% 29.57 in 10.0 mi SSW 17.3 mph 25.3 mph N/A   Mostly Cloudy
3:53 PM 82.0 °F 87.4 °F 73.0 °F 74% 29.57 in 10.0 mi SW 17.3 mph - N/A   Overcast
4:00 PM 80.6 °F 85.4 °F 73.4 °F 79% 29.57 in 10.0 mi SSW 19.6 mph 24.2 mph N/A   Mostly Cloudy
4:53 PM 81.0 °F 85.2 °F 72.0 °F 74% 29.57 in 10.0 mi SW 13.8 mph 23.0 mph N/A   Clear
5:53 PM 80.1 °F 83.8 °F 72.0 °F 76% 29.55 in 10.0 mi SW 15.0 mph 24.2 mph N/A   Scattered Clouds
6:53 PM 78.1 °F - 72.0 °F 81% 29.57 in 10.0 mi WSW 9.2 mph 17.3 mph N/A   Clear
7:53 PM 75.9 °F - 72.0 °F 87% 29.58 in 10.0 mi SW 6.9 mph - N/A   Partly Cloudy
8:53 PM 75.0 °F - 72.0 °F 90% 29.59 in 10.0 mi WSW 4.6 mph - N/A   Mostly Cloudy
9:53 PM 75.0 °F - 73.0 °F 94% 29.60 in 8.0 mi SW 4.6 mph - N/A   Overcast
10:53 PM 73.9 °F - 72.0 °F 93% 29.60 in 7.0 mi SW 5.8 mph - 0.00 in   Overcast
11:53 PM 72.0 °F - 71.1 °F 97% 29.60 in 6.0 mi SW 4.6 mph - 0.00 in   Clear